Starlink 11206

operational
NORAD ID: 60312 Int'l Des: 2024-133 Owner: SPXS Country: US Constellation: starlink
LEOCIRCULAR

Über Starlink 11206

Beschreibung wird geladen...

Live-Position

3D-Globus wird geladen...

Nächste Überflüge

Höhenverlauf

Altitude vs Time

uPlot chart will show altitude changes over time

Zweizeiliger Elementsatz

1 60312U 24133M 26038.09044492 .00030730 00000-0 25731-3 0 9990
2 60312 53.1564 297.3903 0001132 73.5004 286.6138 15.69733822 88924
Epoch: 7. Feb. 2026 • Age: 14 hours

Aktueller Status

Höhe 361.2 km
Geschwindigkeit 7.70 km/s
Subsatellitenpunkt 33.41°N, 55.42°W
Startdatum 28. Juli 2024
Alter 1.5 years
Typ internet

Technische Details

Klassifizierung Payload
Masse 960.00 kg
Trockenmasse 910.00 kg
Gesamtmasse 960.00 kg
Länge 0.30 m
Durchmesser 4.10 m
Spannweite 29.00 m
Form Box + pan
Hersteller SPXS
Bus-Typ Starlink V2MD
Phasenstatus In Orbit
Besitzer/Staat SPXS/US

Große Konstellationen

Loading constellations...